Meteo pe oră la Bolshoe Kobyakovo

Astăzi, 18 Mai, Marţi

Timp Temperatura Precipitaţii Vânt Presiune Umiditate
00:00 +18°C° 0 mm 4 m/s 737 mmHg 92%
01:00 +17°C° 0 mm 4 m/s 737 mmHg 92%
02:00 +17°C° 0 mm 4 m/s 737 mmHg 92%
03:00 +17°C° 0 mm 4 m/s 737 mmHg 92%
04:00 +17°C° 0 mm 4 m/s 737 mmHg 91%
05:00 +17°C° 0 mm 4 m/s 737 mmHg 90%
06:00 +19°C° 0 mm 4 m/s 737 mmHg 84%
07:00 +20°C° 0 mm 4 m/s 737 mmHg 77%
08:00 +22°C° 0 mm 5 m/s 737 mmHg 70%
09:00 +23°C° 0 mm 5 m/s 737 mmHg 64%
10:00 +25°C° 0 mm 5 m/s 737 mmHg 58%
11:00 +27°C° 0 mm 6 m/s 737 mmHg 51%
12:00 +27°C° 0 mm 6 m/s 737 mmHg 50%
13:00 +28°C° 0 mm 5 m/s 737 mmHg 48%
14:00 +28°C° 0 mm 5 m/s 737 mmHg 47%
15:00 +27°C° 0 mm 5 m/s 737 mmHg 50%
16:00 +26°C° 0 mm 5 m/s 737 mmHg 53%
17:00 +25°C° 0 mm 5 m/s 736 mmHg 56%
18:00 +23°C° 0 mm 5 m/s 736 mmHg 61%
19:00 +22°C° 0 mm 5 m/s 736 mmHg 66%
20:00 +20°C° 0 mm 4 m/s 736 mmHg 71%
21:00 +20°C° 0.1 mm 4 m/s 736 mmHg 74%
22:00 +19°C° 0.1 mm 4 m/s 736 mmHg 77%
23:00 +19°C° 0.1 mm 4 m/s 736 mmHg 80%

Mâine, 19 Mai, Miercuri

Timp Temperatura Precipitaţii Vânt Presiune Umiditate
00:00 +18°C° 0 mm 4 m/s 736 mmHg 85%
01:00 +17°C° 0 mm 3 m/s 736 mmHg 90%
02:00 +16°C° 0 mm 2 m/s 736 mmHg 95%
03:00 +16°C° 0 mm 3 m/s 736 mmHg 94%
04:00 +16°C° 0 mm 3 m/s 736 mmHg 93%
05:00 +16°C° 0 mm 3 m/s 736 mmHg 92%
06:00 +17°C° 0 mm 3 m/s 736 mmHg 85%
07:00 +19°C° 0 mm 4 m/s 736 mmHg 79%
08:00 +20°C° 0 mm 4 m/s 737 mmHg 72%
09:00 +20°C° 0.1 mm 4 m/s 737 mmHg 71%
10:00 +21°C° 0.1 mm 5 m/s 737 mmHg 69%
11:00 +21°C° 0.1 mm 5 m/s 737 mmHg 67%
12:00 +21°C° 0.3 mm 5 m/s 737 mmHg 66%
13:00 +21°C° 0.3 mm 5 m/s 737 mmHg 64%
14:00 +21°C° 0.3 mm 5 m/s 737 mmHg 63%
15:00 +21°C° 0 mm 4 m/s 737 mmHg 64%
16:00 +22°C° 0 mm 4 m/s 737 mmHg 65%
17:00 +22°C° 0 mm 3 m/s 737 mmHg 66%
18:00 +20°C° 0 mm 2 m/s 737 mmHg 73%
19:00 +18°C° 0 mm 2 m/s 737 mmHg 79%
20:00 +18°C° 0 mm 1 m/s 737 mmHg 85%
21:00 +16°C° 0 mm 1 m/s 737 mmHg 87%
22:00 +16°C° 0 mm 1 m/s 737 mmHg 89%
23:00 +15°C° 0 mm 1 m/s 736 mmHg 90%

Poimâine, 20 Mai, Joi

Timp Temperatura Precipitaţii Vânt Presiune Umiditate
00:00 +15°C° 0.3 mm 1 m/s 736 mmHg 92%
01:00 +15°C° 0.3 mm 2 m/s 736 mmHg 94%
02:00 +14°C° 0.3 mm 2 m/s 736 mmHg 95%
03:00 +15°C° 0.5 mm 2 m/s 735 mmHg 96%
04:00 +14°C° 0.5 mm 3 m/s 735 mmHg 96%
05:00 +14°C° 0.5 mm 3 m/s 735 mmHg 96%
06:00 +15°C° 0 mm 4 m/s 735 mmHg 92%
07:00 +17°C° 0 mm 4 m/s 735 mmHg 87%
08:00 +18°C° 0 mm 4 m/s 735 mmHg 82%
09:00 +17°C° 0.1 mm 5 m/s 735 mmHg 80%
10:00 +17°C° 0.1 mm 5 m/s 735 mmHg 78%
11:00 +17°C° 0.1 mm 6 m/s 735 mmHg 76%
12:00 +17°C° 0.3 mm 6 m/s 735 mmHg 72%
13:00 +19°C° 0.3 mm 6 m/s 735 mmHg 67%
14:00 +19°C° 0.3 mm 6 m/s 735 mmHg 63%
15:00 +17°C° 0.2 mm 6 m/s 735 mmHg 68%
16:00 +17°C° 0.2 mm 5 m/s 734 mmHg 72%
17:00 +16°C° 0.2 mm 5 m/s 734 mmHg 77%
18:00 +15°C° 0.1 mm 4 m/s 734 mmHg 83%
19:00 +14°C° 0.1 mm 4 m/s 734 mmHg 88%
20:00 +12°C° 0.1 mm 3 m/s 734 mmHg 93%
21:00 +12°C° 0 mm 3 m/s 734 mmHg 94%
22:00 +11°C° 0 mm 3 m/s 734 mmHg 95%
23:00 +11°C° 0 mm 3 m/s 734 mmHg 96%

21 Mai, Vineri

Timp Temperatura Precipitaţii Vânt Presiune Umiditate
00:00 +10°C° 0 mm 3 m/s 734 mmHg 94%
01:00 +10°C° 0 mm 3 m/s 734 mmHg 92%
02:00 +9°C° 0 mm 3 m/s 734 mmHg 89%
03:00 +9°C° 0 mm 3 m/s 734 mmHg 88%
04:00 +9°C° 0 mm 3 m/s 734 mmHg 87%
05:00 +9°C° 0 mm 3 m/s 734 mmHg 86%
06:00 +9°C° 0 mm 3 m/s 734 mmHg 86%
07:00 +9°C° 0 mm 3 m/s 734 mmHg 86%
08:00 +10°C° 0 mm 4 m/s 735 mmHg 86%
09:00 +10°C° 0.1 mm 4 m/s 735 mmHg 88%
10:00 +10°C° 0.1 mm 4 m/s 735 mmHg 90%
11:00 +10°C° 0.1 mm 4 m/s 736 mmHg 92%
12:00 +8°C° 0.1 mm 5 m/s 737 mmHg 91%
13:00 +8°C° 0.1 mm 5 m/s 738 mmHg 90%
14:00 +8°C° 0.1 mm 6 m/s 739 mmHg 89%
15:00 +10°C° 0 mm 6 m/s 740 mmHg 81%
16:00 +12°C° 0 mm 5 m/s 740 mmHg 73%
17:00 +14°C° 0 mm 4 m/s 741 mmHg 65%
18:00 +13°C° 0 mm 3 m/s 741 mmHg 69%
19:00 +11°C° 0 mm 3 m/s 742 mmHg 73%
20:00 +10°C° 0 mm 2 m/s 742 mmHg 77%
21:00 +9°C° 0 mm 3 m/s 743 mmHg 79%
22:00 +9°C° 0 mm 3 m/s 743 mmHg 81%
23:00 +8°C° 0 mm 3 m/s 743 mmHg 84%

22 Mai, Sâmbătă

Timp Temperatura Precipitaţii Vânt Presiune Umiditate
00:00 +7°C° 0 mm 3 m/s 744 mmHg 87%
01:00 +7°C° 0 mm 3 m/s 744 mmHg 90%
02:00 +6°C° 0 mm 2 m/s 745 mmHg 92%
03:00 +7°C° 0 mm 2 m/s 745 mmHg 90%
04:00 +7°C° 0 mm 2 m/s 745 mmHg 88%
05:00 +7°C° 0 mm 2 m/s 745 mmHg 86%
06:00 +9°C° 0 mm 2 m/s 746 mmHg 78%
07:00 +12°C° 0 mm 2 m/s 746 mmHg 70%
08:00 +14°C° 0 mm 2 m/s 746 mmHg 62%
09:00 +15°C° 0 mm 2 m/s 746 mmHg 56%
10:00 +16°C° 0 mm 2 m/s 746 mmHg 51%
11:00 +17°C° 0 mm 2 m/s 746 mmHg 46%
12:00 +18°C° 0 mm 2 m/s 746 mmHg 44%
13:00 +18°C° 0 mm 2 m/s 746 mmHg 43%
14:00 +19°C° 0 mm 2 m/s 745 mmHg 41%
15:00 +19°C° 0 mm 2 m/s 745 mmHg 44%
16:00 +18°C° 0 mm 2 m/s 745 mmHg 48%
17:00 +19°C° 0 mm 1 m/s 745 mmHg 51%
18:00 +16°C° 0 mm 1 m/s 745 mmHg 59%
19:00 +14°C° 0 mm 1 m/s 745 mmHg 66%
20:00 +12°C° 0 mm 1 m/s 745 mmHg 73%
21:00 +12°C° 0 mm 1 m/s 745 mmHg 80%
22:00 +10°C° 0 mm 2 m/s 745 mmHg 87%
23:00 +9°C° 0 mm 2 m/s 745 mmHg 93%

23 Mai, Duminică

Timp Temperatura Precipitaţii Vânt Presiune Umiditate
00:00 +9°C° 0 mm 2 m/s 745 mmHg 94%
01:00 +8°C° 0 mm 2 m/s 745 mmHg 94%
02:00 +8°C° 0 mm 2 m/s 745 mmHg 94%
03:00 +9°C° 0 mm 2 m/s 744 mmHg 92%
04:00 +9°C° 0 mm 2 m/s 744 mmHg 90%
05:00 +10°C° 0 mm 1 m/s 744 mmHg 88%
06:00 +11°C° 0 mm 1 m/s 744 mmHg 85%
07:00 +12°C° 0 mm 1 m/s 743 mmHg 82%
08:00 +13°C° 0 mm 2 m/s 743 mmHg 78%
09:00 +13°C° 0 mm 2 m/s 742 mmHg 81%
10:00 +13°C° 0 mm 1 m/s 742 mmHg 83%
11:00 +13°C° 0 mm 1 m/s 741 mmHg 85%
12:00 +13°C° 0.1 mm 1 m/s 741 mmHg 86%
13:00 +14°C° 0.1 mm 1 m/s 740 mmHg 88%
14:00 +14°C° 0.1 mm 1 m/s 739 mmHg 89%
15:00 +14°C° 0.1 mm 1 m/s 739 mmHg 90%
16:00 +14°C° 0.1 mm 1 m/s 739 mmHg 91%
17:00 +14°C° 0.1 mm 2 m/s 738 mmHg 93%
18:00 +14°C° 0 mm 2 m/s 738 mmHg 93%
19:00 +13°C° 0 mm 3 m/s 738 mmHg 92%
20:00 +13°C° 0 mm 4 m/s 737 mmHg 92%
21:00 +12°C° 0 mm 5 m/s 738 mmHg 91%
22:00 +10°C° 0 mm 6 m/s 739 mmHg 89%
23:00 +10°C° 0 mm 7 m/s 739 mmHg 87%
Arată mai mult

Formular de consimțământ

Meteoprog și furnizorii noștri de servicii pot stoca și accesa date personale, precum cookies, identificatori de dispozitiv sau alte tehnologii similare pe dispozitivul dumneavoastră și procesa astfel de date pentru a personaliza conținutul și reclamele, dar și pentru a oferi caracteristici de social media și pentru a analiza traficul.

  • Stocarea și/sau accesarea informațiilor pe dispozitivul dumneavoastră

    Cookies, identificatori de dispozitiv sau alte informații pot fi stocate sau accesate pe dispozitiv în scopurile indicate mai sus.

  • Reclame și conținut personalizat, evaluarea reclamelor și a conținutului, informații despre audiențe și dezvoltarea produselor

    Reclamele și conținutul pot fi personalizate pe baza unui profil. Pot fi adăugate date suplimentare pentru a personaliza mai bine reclamele și conținutul. Performanța reclamelor și conținutului poate fi măsurată. Pot fi obținute informații despre utilizatorii care au văzut reclamele și conținutul. Aceste date pot fi utilizate pentru a dezvolta sau îmbunătăți experiența utilizatorilor, sistemele și software-ul.

Dând clic pe ‘Sunt de acord’, permiteți utilizarea cookie-urilor menționate, a identificatorilor de dispozitiv, balizelor web sau altor tehnologii similare. Setările pot fi modificate din browser-ul dispozitivului dumneavoastră.

În anumite scopuri, interesele legitime pot prima asupra consimțământului. Puteți citi mai multe informații în acest sens în Politica privind Confidențialitatea Datelor și Cookie.